Location: Ingoldesthorpe
(52.8667°N, 0.5167°E)
Time: 22:34:29
(UTC+00:00)

Exosat Rocket - Pass Details

Date: 19 May 2025
Orbit: 761 x 2512 km, 72.3° (Epoch: 12 June)

Event Time Altitude Azimuth Distance (km) Brightness Sun altitude
Rises 23:08:04 0° 330° (NNW) 3,416 8.3 -16.5°
Reaches altitude 10° 23:10:34 10° 331° (NNW) 2,384 7.2 -16.5°
Maximum altitude 23:15:43 89° 247° (WSW) 769 3.4 -16.7°
Enters shadow 23:18:33 27° 153° (SSE) 1,463 4.4 -16.7°
